STARLINK-31663, 59576

Orbit data source: Space-Track

STARLINK-31663, 59576 is a payload satellite owned by SpaceX/Seattle (US) in LEO that was launched on Tue, 23 Apr 2024 UTC via an FALCON 9 launch vehicle from the Air Force Eastern Test Range (AFETR). Payload-class satellites include a variety of spacecraft equipped with specific instruments for various scientific and technological missions. These include communications satellites like Starlink; space stations such as the ISS; scientific satellites like the Hubble; Earth observation satellites from companies like Planet Labs, Umbra, and HawkEye 360; GPS; miniature CubeSats for education and research; and military/defense satellites.

Loading next visibility...
Identifier
59576, 2024-076N
Orbit
LEO
Country
Flag of USUS
Related business
Manufacturer
SpaceX/Seattle
Mission
Operational Commercial Communications
Bus & Motor
STARLINK V2M, Unknown motor
Mass
730 kg wet, ~700 kg dry
Launch date (UTC)
2024-04-23 (2 years ago)
Launch vehicle
FALCON 9
Launch site
Air Force Eastern Test Range (AFETR)
Object type
Payload
Rocket body
Debris
Shape & HBR
Box + 2 Pan, 17.7 m
Radar Cross Section
33.884 m², Large (>1 m²)

Expand to show TLE details & history
Last TLE update: 14 hours ago

TLE from 14 hours ago
0 STARLINK-31663
1 59576U 24076N   26035.49996164 -.00005791  00000-0 -20136-3 0  9994
2 59576  43.0016 196.7031 0000982 257.2452 102.8290 15.27538107101420
Epoch: 2026-02-04T11:59Z
TLE epoch observation values (Epoch: 2026-02-04T11:59:56.685Z)
Latitude
-0.00002°
Longitude
-117.94877°
Altitude
483.1 km
Speed
7.626 km/s
True Right ascension
13h 06m 48s
True Declination
0° 00' 00"
Sunlit
Object was in full shadow at epoch
Visualization orbit readout
Latitude
Unknown
Longitude
Unknown
Altitude
Unknown
Speed
Unknown
Apparent Right ascension
Unknown
Apparent Declination
Unknown
Sunlit
N/A
Visualization observer readout
Local Sidereal Time
03:54:49
Azimuth
Unknown
Elevation
Unknown
Doppler factor
Unknown
Orbital elements
Apogee altitude
485.793 km
Perigee altitude
484.445 km
Semi-major axis
6,863.256 km
Eccentricity
0.0001
Inclination
43.0016°
RAAN
196.7031°
Arg. of periapsis
257.2452°
True anomaly
102.83997°
Mean anomaly
102.829°
Eccentric anomaly
102.83449°
Mean motion
3.81723 °/min
Orbital period
94.31 mins
BSTAR
-0.00020136
Loading maneuver chart data...
Computing Atmospheric mass density...
Loading historical data...
Loading historical data...
Loading historical data...
Loading historical data...
Loading historical data...
Loading historical data...
Loading historical data...

Documentation

Showing up to 5 results
|